Weather History for Waterville, ME

Change the Weather History Date:

Saturday, July 20, 2013

  Actual Average Record
Temperature  
Mean Temperature 76 °F -  
Max Temperature 86 °F 82 °F 96 °F (1977)
Min Temperature 66 °F 59 °F 46 °F (2000)
Cooling Degree Days 11    
Growing Degree Days 26 (Base 50)    
Moisture  
Dew Point 68 °F    
Average Humidity 78    
Maximum Humidity 94    
Minimum Humidity 51    
Precipitation  
Precipitation 0.23 in - - ()
Sea Level Pressure  
Sea Level Pressure 29.62 in    
Wind  
Wind Speed 6 mph (SW)    
Max Wind Speed 17 mph    
Max Gust Speed 30 mph    
Visibility 10 miles    
Events      
Averages and records for this station are not official NWS values.
T = Trace of Precipitation, MM = Missing Value Source: NWS Daily Summary

Daily Weather History Graph

Daily Weather History Graph

Search for Another Location

Airport:

Trip Planner

Search our weather history database for the weather conditions in past years. The results will help you decide how hot, cold, wet, or windy it might be!

Date:

Astronomy

Jul. 20, 2013 Rise Set
Actual Time 5:12 AM EDT 8:16 PM EDT
Civil Twilight 4:38 AM EDT 8:51 PM EDT
Nautical Twilight 3:53 AM EDT 9:35 PM EDT
Astronomical Twilight 2:59 AM EDT 10:29 PM EDT
Moon 6:16 PM EDT (7/20) 2:49 AM EDT (7/20)
Length of Visible Light 16h 13m
Length of Day
15h 03m
Waxing Gibbous, 93% of the Moon is Illuminated
Jul 20
Waxing Gibbous
Jul 22
Full
Jul 29
Last Quarter
Aug 6
New
Aug 14
First Quarter

Hourly Weather History & Observations

Time (EDT) Temp. Heat Index Dew Point Humidity Pressure Visibility Wind Dir Wind Speed Gust Speed Precip Events Conditions
12:15 AM 71.6 °F - 68.0 °F 88% 29.62 in 10.0 mi WSW 8.1 mph - N/A   Clear
12:35 AM 71.6 °F - 68.0 °F 88% 29.62 in 10.0 mi SW 6.9 mph - N/A   Clear
12:55 AM 71.6 °F - 66.2 °F 83% 29.62 in 10.0 mi SW 8.1 mph - N/A   Clear
1:15 AM 71.6 °F - 66.2 °F 83% 29.61 in 10.0 mi WSW 8.1 mph - N/A   Clear
1:35 AM 71.6 °F - 66.2 °F 83% 29.61 in 10.0 mi SW 4.6 mph - N/A   Clear
1:55 AM 69.8 °F - 66.2 °F 88% 29.59 in 10.0 mi WSW 4.6 mph - N/A   Clear
2:15 AM 69.8 °F - 66.2 °F 88% 29.58 in 10.0 mi North 3.5 mph - N/A   Clear
2:35 AM 69.8 °F - 66.2 °F 88% 29.58 in 10.0 mi Calm Calm - N/A   Clear
2:55 AM 69.8 °F - 66.2 °F 88% 29.60 in 10.0 mi South 5.8 mph - N/A   Clear
3:15 AM 69.8 °F - 66.2 °F 88% 29.59 in 10.0 mi South 5.8 mph - N/A   Clear
3:35 AM 69.8 °F - 66.2 °F 88% 29.59 in 10.0 mi Calm Calm - N/A   Clear
3:55 AM 68.0 °F - 66.2 °F 94% 29.59 in 10.0 mi South 3.5 mph - N/A   Clear
4:15 AM 69.8 °F - 66.2 °F 88% 29.59 in 10.0 mi SSW 5.8 mph - N/A   Clear
4:35 AM 69.8 °F - 66.2 °F 88% 29.59 in 10.0 mi SSW 5.8 mph - N/A   Clear
4:55 AM 68.0 °F - 66.2 °F 94% 29.60 in 10.0 mi SSW 4.6 mph - N/A   Clear
5:15 AM 71.6 °F - 68.0 °F 88% 29.61 in 10.0 mi SW 6.9 mph - N/A   Clear
5:35 AM 69.8 °F - 68.0 °F 94% 29.61 in 10.0 mi SSW 4.6 mph - N/A   Clear
5:55 AM 69.8 °F - 68.0 °F 94% 29.62 in 10.0 mi SW 5.8 mph - N/A   Clear
6:15 AM 71.6 °F - 69.8 °F 94% 29.62 in 10.0 mi SW 5.8 mph - N/A   Clear
6:35 AM 71.6 °F - 69.8 °F 94% 29.63 in 10.0 mi SSW 5.8 mph - N/A   Clear
6:55 AM 73.4 °F - 69.8 °F 88% 29.63 in 10.0 mi South 3.5 mph - N/A   Clear
7:15 AM 73.4 °F - 69.8 °F 88% 29.64 in 10.0 mi Calm Calm - N/A   Clear
7:35 AM 73.4 °F - 69.8 °F 88% 29.64 in 10.0 mi Calm Calm - N/A   Clear
7:55 AM 75.2 °F - 69.8 °F 83% 29.64 in 10.0 mi Calm Calm - N/A   Clear
8:15 AM 75.2 °F - 71.6 °F 89% 29.65 in 10.0 mi Calm Calm - N/A   Clear
8:35 AM 75.2 °F - 69.8 °F 83% 29.65 in 10.0 mi Calm Calm - N/A   Clear
8:55 AM 77.0 °F - 71.6 °F 83% 29.64 in 10.0 mi SSW 3.5 mph - N/A   Clear
9:15 AM 78.8 °F - 69.8 °F 74% 29.63 in 10.0 mi SSW 6.9 mph - N/A   Clear
9:35 AM 80.6 °F 83.9 °F 69.8 °F 70% 29.63 in 10.0 mi SW 6.9 mph - N/A   Clear
9:55 AM 82.4 °F 86.3 °F 69.8 °F 66% 29.63 in 10.0 mi SW 6.9 mph - N/A   Clear
10:15 AM 82.4 °F 86.3 °F 69.8 °F 66% 29.62 in 10.0 mi SW 6.9 mph - N/A   Clear
10:35 AM 82.4 °F 86.3 °F 69.8 °F 66% 29.62 in 10.0 mi SW 6.9 mph - N/A   Clear
10:55 AM 82.4 °F 85.4 °F 68.0 °F 62% 29.62 in 10.0 mi SW 9.2 mph - N/A   Partly Cloudy
11:15 AM 82.4 °F 86.3 °F 69.8 °F 66% 29.62 in 10.0 mi SSW 3.5 mph - N/A   Partly Cloudy
11:35 AM 80.6 °F 84.6 °F 71.6 °F 74% 29.62 in 10.0 mi SSW 4.6 mph - N/A   Partly Cloudy
11:55 AM 82.4 °F 87.2 °F 71.6 °F 70% 29.61 in 10.0 mi SW 8.1 mph - N/A   Clear
12:15 PM 82.4 °F 86.3 °F 69.8 °F 66% 29.62 in 10.0 mi SW 9.2 mph - N/A   Mostly Cloudy
12:35 PM 82.4 °F 86.3 °F 69.8 °F 66% 29.61 in 10.0 mi SW 8.1 mph - N/A   Scattered Clouds
12:55 PM 84.2 °F 89.6 °F 71.6 °F 66% 29.60 in 10.0 mi SSW 4.6 mph - N/A   Clear
1:15 PM 84.2 °F 89.6 °F 71.6 °F 66% 29.59 in 10.0 mi West 6.9 mph - N/A   Clear
1:35 PM 84.2 °F 88.4 °F 69.8 °F 62% 29.58 in 10.0 mi South 6.9 mph - N/A   Partly Cloudy
1:55 PM 84.2 °F 88.4 °F 69.8 °F 62% 29.58 in 10.0 mi SSW 9.2 mph - N/A   Mostly Cloudy
2:15 PM 86.0 °F 90.4 °F 69.8 °F 58% 29.58 in 10.0 mi WSW 11.5 mph 18.4 mph N/A   Mostly Cloudy
2:35 PM 86.0 °F 88.2 °F 66.2 °F 51% 29.58 in 10.0 mi WSW 10.4 mph 16.1 mph N/A   Scattered Clouds
2:55 PM 84.2 °F 86.6 °F 66.2 °F 55% 29.58 in 10.0 mi West 8.1 mph - N/A   Partly Cloudy
3:15 PM 82.4 °F 85.4 °F 68.0 °F 62% 29.58 in 10.0 mi WSW 4.6 mph - N/A   Clear
3:35 PM 84.2 °F 87.3 °F 68.0 °F 58% 29.57 in 10.0 mi SW 4.6 mph - N/A   Mostly Cloudy
3:55 PM 84.2 °F 86.6 °F 66.2 °F 55% 29.57 in 10.0 mi SW 5.8 mph - N/A   Scattered Clouds
4:15 PM 84.2 °F 88.4 °F 69.8 °F 62% 29.57 in 10.0 mi Calm Calm - N/A   Scattered Clouds
4:35 PM 82.4 °F 86.3 °F 69.8 °F 66% 29.57 in 10.0 mi SW 8.1 mph - N/A   Scattered Clouds
4:55 PM 77.0 °F - 69.8 °F 78% 29.60 in 6.0 mi NNW 17.3 mph 29.9 mph 0.06 in   Mostly Cloudy
5:15 PM 71.6 °F - 68.0 °F 88% 29.60 in 10.0 mi South 3.5 mph - 0.17 in   Mostly Cloudy
5:35 PM 71.6 °F - 69.8 °F 94% 29.60 in 10.0 mi SSW 3.5 mph - 0.17 in   Scattered Clouds
5:55 PM 73.4 °F - 68.0 °F 83% 29.61 in 10.0 mi WSW 9.2 mph - 0.17 in   Mostly Cloudy
6:15 PM 71.6 °F - 68.0 °F 88% 29.62 in 10.0 mi WSW 9.2 mph - N/A   Mostly Cloudy
6:35 PM 71.6 °F - 68.0 °F 88% 29.62 in 10.0 mi WSW 8.1 mph - N/A   Mostly Cloudy
6:55 PM 73.4 °F - 66.2 °F 78% 29.62 in 10.0 mi WSW 9.2 mph - N/A   Partly Cloudy
7:15 PM 73.4 °F - 66.2 °F 78% 29.63 in 10.0 mi WSW 8.1 mph - N/A   Clear
7:35 PM 73.4 °F - 66.2 °F 78% 29.64 in 10.0 mi WSW 6.9 mph - N/A   Clear
7:55 PM 71.6 °F - 66.2 °F 83% 29.64 in 10.0 mi SW 6.9 mph - N/A   Clear
8:15 PM 71.6 °F - 66.2 °F 83% 29.64 in 10.0 mi WSW 3.5 mph - N/A   Clear
8:35 PM 71.6 °F - 64.4 °F 78% 29.65 in 10.0 mi WSW 5.8 mph - N/A   Clear
8:55 PM 71.6 °F - 64.4 °F 78% 29.66 in 10.0 mi West 3.5 mph - N/A   Clear
9:15 PM 73.4 °F - 64.4 °F 73% 29.67 in 10.0 mi West 3.5 mph - N/A   Clear
9:35 PM 71.6 °F - 64.4 °F 78% 29.69 in 10.0 mi North 9.2 mph - N/A   Clear
9:55 PM 71.6 °F - 64.4 °F 78% 29.70 in 10.0 mi North 6.9 mph - N/A   Mostly Cloudy
10:15 PM 71.6 °F - 62.6 °F 73% 29.72 in 10.0 mi NNW 6.9 mph - N/A   Overcast
10:35 PM 71.6 °F - 60.8 °F 69% 29.72 in 10.0 mi NNW 10.4 mph - N/A   Overcast
10:55 PM 71.6 °F - 60.8 °F 69% 29.73 in 10.0 mi NW 9.2 mph - N/A   Partly Cloudy
11:15 PM 69.8 °F - 59.0 °F 68% 29.75 in 10.0 mi NNW 6.9 mph - N/A   Clear
11:36 PM 66.2 °F - 62.6 °F 88% 29.76 in 10.0 mi Calm Calm - N/A   Clear
11:55 PM 66.2 °F - 60.8 °F 83% 29.76 in 10.0 mi North 5.8 mph - N/A   Clear